| time (UTC) | temp F | wind direction | speed MPH | gust MPH | rain 1hr in | rain 24hr in | rain mn in | humidity % | barometer mb |
| 20260506234521 | 48 | 40 | 1.0 | 4.0 | 0.00 | 0.00 | 0.00 | 82 | 1014.4 |
| 20260506234015 | 48 | 71 | 1.0 | 4.0 | 0.00 | 0.00 | 0.00 | 82 | 1014.4 |
| 20260506233515 | 48 | 290 | 1.0 | 5.0 | 0.00 | 0.00 | 0.00 | 82 | 1014.4 |
| 20260506233014 | 48 | 90 | 1.0 | 5.0 | 0.00 | 0.00 | 0.00 | 82 | 1014.5 |
| 20260506232514 | 48 | 90 | 1.0 | 7.0 | 0.00 | 0.00 | 0.00 | 82 | 1014.4 |
| 20260506232013 | 48 | 41 | 2.0 | 7.0 | 0.00 | 0.00 | 0.00 | 82 | 1014.4 |
| 20260506231528 | 48 | 10 | 3.0 | 6.0 | 0.00 | 0.00 | 0.00 | 82 | 1014.4 |
| 20260506231013 | 48 | 26 | 2.0 | 4.0 | 0.00 | 0.00 | 0.00 | 82 | 1014.4 |
| 20260506230513 | 48 | 19 | 0.0 | 4.0 | 0.00 | 0.00 | 0.00 | 82 | 1014.4 |
| 20260506230011 | 48 | 295 | 1.0 | 5.0 | 0.00 | 0.00 | 0.00 | 82 | 1014.4 |
| 20260506225510 | 48 | 43 | 1.0 | 6.0 | 0.00 | 0.00 | 0.00 | 82 | 1014.3 |
| 20260506225010 | 48 | 74 | 2.0 | 5.0 | 0.00 | 0.00 | 0.00 | 82 | 1014.3 |
| 20260506224509 | 49 | 304 | 1.0 | 4.0 | 0.00 | 0.00 | 0.00 | 82 | 1014.3 |
| 20260506224008 | 49 | 30 | 1.0 | 5.0 | 0.00 | 0.00 | 0.00 | 82 | 1014.3 |
| 20260506223507 | 49 | 304 | 2.0 | 5.0 | 0.00 | 0.00 | 0.00 | 82 | 1014.2 |
| 20260506223006 | 49 | 351 | 2.0 | 5.0 | 0.00 | 0.00 | 0.00 | 82 | 1014.2 |
| 20260506222606 | 49 | 64 | 1.0 | 5.0 | 0.00 | 0.00 | 0.00 | 81 | 1014.2 |
| 20260506222006 | 49 | 39 | 2.0 | 6.0 | 0.00 | 0.00 | 0.00 | 81 | 1014.2 |
| 20260506221505 | 49 | 342 | 2.0 | 8.0 | 0.00 | 0.00 | 0.00 | 81 | 1014.1 |
| 20260506221004 | 49 | 311 | 2.0 | 8.0 | 0.00 | 0.00 | 0.00 | 80 | 1014.0 |
| 20260506220504 | 49 | 311 | 2.0 | 5.0 | 0.00 | 0.00 | 0.00 | 80 | 1014.0 |
| 20260506220003 | 50 | 345 | 1.0 | 5.0 | 0.00 | 0.00 | 0.00 | 80 | 1014.0 |
| 20260506215501 | 50 | 360 | 1.0 | 4.0 | 0.00 | 0.00 | 0.00 | 79 | 1014.0 |
| 20260506215003 | 50 | 296 | 0.0 | 4.0 | 0.00 | 0.00 | 0.00 | 79 | 1014.0 |
| 20260506214601 | 50 | 327 | 1.0 | 6.0 | 0.00 | 0.00 | 0.00 | 78 | 1013.9 |
| 20260506214100 | 50 | 350 | 2.0 | 6.0 | 0.00 | 0.00 | 0.00 | 77 | 1013.9 |
| 20260506213602 | 50 | 15 | 1.0 | 5.0 | 0.00 | 0.00 | 0.00 | 77 | 1013.8 |
| 20260506213136 | 50 | 285 | 2.0 | 6.0 | 0.00 | 0.00 | 0.00 | 76 | 1013.7 |
| 20260506212558 | 51 | 50 | 1.0 | 4.0 | 0.00 | 0.00 | 0.00 | 76 | 1013.7 |
| 20260506212059 | 51 | 292 | 1.0 | 4.0 | 0.00 | 0.00 | 0.00 | 76 | 1013.7 |
| 20260506211616 | 51 | 312 | 1.0 | 5.0 | 0.00 | 0.00 | 0.00 | 75 | 1013.7 |
| 20260506211057 | 51 | 290 | 0.0 | 5.0 | 0.00 | 0.00 | 0.00 | 75 | 1013.6 |
| 20260506210556 | 51 | 307 | 0.0 | 5.0 | 0.00 | 0.00 | 0.00 | 75 | 1013.6 |
| 20260506205555 | 51 | 293 | 0.0 | 4.0 | 0.00 | 0.00 | 0.00 | 74 | 1013.5 |
| 20260506205054 | 51 | 325 | 0.0 | 4.0 | 0.00 | 0.00 | 0.00 | 74 | 1013.5 |
| 20260506204558 | 52 | 302 | 1.0 | 5.0 | 0.00 | 0.00 | 0.00 | 74 | 1013.5 |
| 20260506204053 | 52 | 290 | 2.0 | 5.0 | 0.00 | 0.00 | 0.00 | 73 | 1013.4 |
| 20260506203554 | 52 | 344 | 1.0 | 5.0 | 0.00 | 0.00 | 0.00 | 73 | 1013.4 |
| 20260506203054 | 52 | 38 | 1.0 | 5.0 | 0.00 | 0.00 | 0.00 | 73 | 1013.3 |
| 20260506202555 | 52 | 51 | 2.0 | 5.0 | 0.00 | 0.00 | 0.00 | 72 | 1013.3 |
| 20260506202057 | 52 | 302 | 1.0 | 5.0 | 0.00 | 0.00 | 0.00 | 72 | 1013.3 |
| 20260506201600 | 52 | 277 | 1.0 | 6.0 | 0.00 | 0.00 | 0.00 | 71 | 1013.2 |
| 20260506201052 | 53 | 327 | 2.0 | 10.0 | 0.00 | 0.00 | 0.00 | 71 | 1013.2 |
| 20260506200551 | 53 | 37 | 2.0 | 10.0 | 0.00 | 0.00 | 0.00 | 70 | 1013.2 |
| 20260506200058 | 53 | 309 | 0.0 | 4.0 | 0.00 | 0.00 | 0.00 | 69 | 1013.1 |
| 20260506195550 | 53 | 331 | 1.0 | 8.0 | 0.00 | 0.00 | 0.00 | 68 | 1013.0 |
| 20260506195049 | 53 | 271 | 1.0 | 8.0 | 0.00 | 0.00 | 0.00 | 67 | 1012.9 |
| 20260506194558 | 53 | 292 | 2.0 | 8.0 | 0.00 | 0.00 | 0.00 | 66 | 1012.9 |
| 20260506194052 | 53 | 306 | 2.0 | 8.0 | 0.00 | 0.00 | 0.00 | 66 | 1012.9 |
| 20260506193552 | 53 | 5 | 2.0 | 6.0 | 0.00 | 0.00 | 0.00 | 66 | 1012.8 |
| 20260506193047 | 53 | 338 | 2.0 | 7.0 | 0.00 | 0.00 | 0.00 | 66 | 1012.8 |
| 20260506192551 | 53 | 322 | 2.0 | 9.0 | 0.00 | 0.00 | 0.00 | 66 | 1012.7 |
| 20260506192046 | 53 | 304 | 2.0 | 9.0 | 0.00 | 0.00 | 0.00 | 65 | 1012.6 |
| 20260506191548 | 54 | 350 | 3.0 | 6.0 | 0.00 | 0.00 | 0.00 | 65 | 1012.6 |
| 20260506191046 | 54 | 32 | 1.0 | 6.0 | 0.00 | 0.00 | 0.00 | 65 | 1012.5 |
| 20260506190544 | 54 | 298 | 1.0 | 6.0 | 0.00 | 0.00 | 0.00 | 64 | 1012.4 |
| 20260506190043 | 54 | 300 | 2.0 | 8.0 | 0.00 | 0.00 | 0.00 | 64 | 1012.3 |
| 20260506185543 | 54 | 295 | 3.0 | 9.0 | 0.00 | 0.00 | 0.00 | 64 | 1012.3 |
| 20260506185045 | 54 | 292 | 2.0 | 10.0 | 0.00 | 0.00 | 0.00 | 65 | 1012.2 |
| 20260506184541 | 54 | 338 | 3.0 | 10.0 | 0.00 | 0.00 | 0.00 | 65 | 1012.1 |
| 20260506184041 | 55 | 279 | 2.0 | 9.0 | 0.00 | 0.00 | 0.00 | 65 | 1012.1 |
| 20260506183542 | 55 | 355 | 2.0 | 9.0 | 0.00 | 0.00 | 0.00 | 66 | 1012.0 |
| 20260506183055 | 55 | 268 | 2.0 | 5.0 | 0.00 | 0.00 | 0.00 | 65 | 1011.9 |
| 20260506182539 | 55 | 280 | 1.0 | 8.0 | 0.00 | 0.00 | 0.00 | 66 | 1011.9 |
| 20260506182042 | 55 | 289 | 3.0 | 9.0 | 0.00 | 0.00 | 0.00 | 65 | 1011.9 |
| 20260506181539 | 55 | 74 | 3.0 | 9.0 | 0.00 | 0.00 | 0.00 | 65 | 1011.8 |
| 20260506181037 | 55 | 325 | 3.0 | 8.0 | 0.00 | 0.00 | 0.00 | 65 | 1011.8 |
| 20260506180539 | 56 | 330 | 2.0 | 7.0 | 0.00 | 0.00 | 0.00 | 65 | 1011.8 |
| 20260506180040 | 56 | 90 | 2.0 | 10.0 | 0.00 | 0.00 | 0.00 | 65 | 1011.6 |
| 20260506175538 | 56 | 293 | 3.0 | 10.0 | 0.00 | 0.00 | 0.00 | 65 | 1011.6 |
| 20260506175035 | 56 | 301 | 2.0 | 7.0 | 0.00 | 0.00 | 0.00 | 65 | 1011.5 |
| 20260506174539 | 55 | 85 | 3.0 | 7.0 | 0.00 | 0.00 | 0.00 | 65 | 1011.5 |
| 20260506174035 | 55 | 92 | 2.0 | 5.0 | 0.00 | 0.00 | 0.00 | 65 | 1011.4 |
| 20260506173533 | 55 | 56 | 2.0 | 6.0 | 0.00 | 0.00 | 0.00 | 64 | 1011.3 |
| 20260506173034 | 55 | 13 | 1.0 | 6.0 | 0.00 | 0.00 | 0.00 | 64 | 1011.3 |
| 20260506172532 | 55 | 57 | 1.0 | 4.0 | 0.00 | 0.00 | 0.00 | 64 | 1011.2 |
| 20260506172032 | 55 | 300 | 0.0 | 6.0 | 0.00 | 0.00 | 0.00 | 63 | 1011.1 |
| 20260506171537 | 55 | 338 | 0.0 | 6.0 | 0.00 | 0.00 | 0.00 | 63 | 1011.1 |
| 20260506171033 | 55 | 58 | 2.0 | 7.0 | 0.00 | 0.00 | 0.00 | 64 | 1011.2 |
| 20260506170531 | 55 | 46 | 1.0 | 8.0 | 0.00 | 0.00 | 0.00 | 63 | 1011.1 |
| 20260506170034 | 56 | 68 | 2.0 | 8.0 | 0.00 | 0.00 | 0.00 | 63 | 1011.1 |
| 20260506165532 | 56 | 79 | 2.0 | 6.0 | 0.00 | 0.00 | 0.00 | 61 | 1011.1 |
| 20260506165031 | 56 | 132 | 1.0 | 9.0 | 0.00 | 0.00 | 0.00 | 61 | 1011.1 |
| 20260506164531 | 56 | 36 | 0.0 | 6.0 | 0.00 | 0.00 | 0.00 | 61 | 1011.1 |
| 20260506164034 | 56 | 82 | 1.0 | 6.0 | 0.00 | 0.00 | 0.00 | 60 | 1011.0 |
| 20260506163530 | 56 | 99 | 1.0 | 11.0 | 0.00 | 0.00 | 0.00 | 59 | 1011.0 |
| 20260506163033 | 56 | 67 | 2.0 | 11.0 | 0.00 | 0.00 | 0.00 | 58 | 1011.0 |
| 20260506162529 | 56 | 46 | 2.0 | 5.0 | 0.00 | 0.00 | 0.00 | 58 | 1010.9 |
| 20260506162033 | 56 | 279 | 2.0 | 5.0 | 0.00 | 0.00 | 0.00 | 57 | 1010.9 |
| 20260506161530 | 56 | 328 | 2.0 | 5.0 | 0.00 | 0.00 | 0.00 | 57 | 1010.8 |
| 20260506161029 | 56 | 60 | 1.0 | 5.0 | 0.00 | 0.00 | 0.00 | 56 | 1010.8 |
| 20260506160531 | 56 | 344 | 2.0 | 10.0 | 0.00 | 0.00 | 0.00 | 56 | 1010.8 |
| 20260506160030 | 57 | 43 | 1.0 | 10.0 | 0.00 | 0.00 | 0.00 | 56 | 1010.8 |
| 20260506155530 | 57 | 24 | 2.0 | 9.0 | 0.00 | 0.00 | 0.00 | 55 | 1010.9 |
| 20260506155029 | 57 | 54 | 2.0 | 8.0 | 0.00 | 0.00 | 0.00 | 54 | 1010.9 |
| 20260506154532 | 57 | 71 | 2.0 | 8.0 | 0.00 | 0.00 | 0.00 | 53 | 1010.8 |
| 20260506154029 | 57 | 265 | 1.0 | 9.0 | 0.00 | 0.00 | 0.00 | 52 | 1010.8 |
| 20260506153528 | 57 | 62 | 2.0 | 9.0 | 0.00 | 0.00 | 0.00 | 51 | 1010.9 |
| 20260506153028 | 57 | 19 | 1.0 | 9.0 | 0.00 | 0.00 | 0.00 | 50 | 1010.9 |
| 20260506152528 | 57 | 36 | 3.0 | 7.0 | 0.00 | 0.00 | 0.00 | 50 | 1010.9 |
| 20260506152030 | 57 | 49 | 1.0 | 5.0 | 0.00 | 0.00 | 0.00 | 51 | 1010.8 |
| 20260506151529 | 57 | 54 | 1.0 | 6.0 | 0.00 | 0.00 | 0.00 | 50 | 1010.8 |
| 20260506151029 | 57 | 113 | 3.0 | 6.0 | 0.00 | 0.00 | 0.00 | 50 | 1010.7 |
| 20260506150527 | 57 | 57 | 2.0 | 9.0 | 0.00 | 0.00 | 0.00 | 49 | 1010.7 |
| 20260506150027 | 58 | 71 | 2.0 | 7.0 | 0.00 | 0.00 | 0.00 | 49 | 1010.8 |
| 20260506145529 | 58 | 321 | 2.0 | 6.0 | 0.00 | 0.00 | 0.00 | 48 | 1010.7 |
| 20260506145026 | 58 | 84 | 1.0 | 7.0 | 0.00 | 0.00 | 0.00 | 49 | 1010.7 |
| 20260506144526 | 58 | 11 | 1.0 | 10.0 | 0.00 | 0.00 | 0.00 | 49 | 1010.6 |
| 20260506144028 | 59 | 360 | 2.0 | 10.0 | 0.00 | 0.00 | 0.00 | 48 | 1010.6 |
| 20260506143526 | 59 | 24 | 2.0 | 9.0 | 0.00 | 0.00 | 0.00 | 48 | 1010.6 |
| 20260506143031 | 59 | 77 | 3.0 | 9.0 | 0.00 | 0.00 | 0.00 | 47 | 1010.7 |
| 20260506142525 | 59 | 98 | 2.0 | 11.0 | 0.00 | 0.00 | 0.00 | 49 | 1010.5 |
| 20260506142029 | 59 | 36 | 2.0 | 11.0 | 0.00 | 0.00 | 0.00 | 49 | 1010.5 |
| 20260506141525 | 59 | 62 | 3.0 | 10.0 | 0.00 | 0.00 | 0.00 | 50 | 1010.6 |
| 20260506141029 | 59 | 71 | 3.0 | 10.0 | 0.00 | 0.00 | 0.00 | 49 | 1010.5 |
| 20260506140525 | 59 | 79 | 4.0 | 12.0 | 0.00 | 0.00 | 0.00 | 49 | 1010.6 |
| 20260506140024 | 59 | 40 | 4.0 | 12.0 | 0.00 | 0.00 | 0.00 | 49 | 1010.5 |
| 20260506135524 | 59 | 302 | 2.0 | 12.0 | 0.00 | 0.00 | 0.00 | 48 | 1010.6 |
| 20260506135024 | 60 | 70 | 1.0 | 14.0 | 0.00 | 0.00 | 0.00 | 48 | 1010.4 |
| 20260506134524 | 60 | 44 | 3.0 | 14.0 | 0.00 | 0.00 | 0.00 | 48 | 1010.5 |
| 20260506134024 | 59 | 305 | 2.0 | 6.0 | 0.00 | 0.00 | 0.00 | 49 | 1010.5 |
| 20260506133526 | 59 | 335 | 2.0 | 9.0 | 0.00 | 0.00 | 0.00 | 49 | 1010.4 |
| 20260506133025 | 60 | 36 | 3.0 | 9.0 | 0.00 | 0.00 | 0.00 | 49 | 1010.5 |
| 20260506132525 | 60 | 58 | 2.0 | 7.0 | 0.00 | 0.00 | 0.00 | 49 | 1010.5 |
| 20260506132027 | 60 | 75 | 1.0 | 9.0 | 0.00 | 0.00 | 0.00 | 48 | 1010.4 |
| 20260506131523 | 61 | 73 | 2.0 | 8.0 | 0.00 | 0.00 | 0.00 | 47 | 1010.2 |
| 20260506131023 | 61 | 40 | 2.0 | 10.0 | 0.00 | 0.00 | 0.00 | 49 | 1010.3 |
| 20260506130523 | 61 | 71 | 3.0 | 10.0 | 0.00 | 0.00 | 0.00 | 48 | 1010.3 |
| 20260506130024 | 61 | 133 | 1.0 | 10.0 | 0.00 | 0.00 | 0.00 | 48 | 1010.2 |
| 20260506125522 | 61 | 302 | 3.0 | 10.0 | 0.00 | 0.00 | 0.00 | 47 | 1010.3 |
| 20260506125021 | 61 | 58 | 2.0 | 12.0 | 0.00 | 0.00 | 0.00 | 49 | 1010.3 |
| 20260506124518 | 60 | 292 | 3.0 | 12.0 | 0.00 | 0.00 | 0.00 | 47 | 1010.3 |
| 20260506124018 | 60 | 247 | 4.0 | 11.0 | 0.00 | 0.00 | 0.00 | 48 | 1010.3 |
| 20260506123517 | 60 | 61 | 2.0 | 14.0 | 0.00 | 0.00 | 0.00 | 49 | 1010.2 |
| 20260506123018 | 60 | 296 | 2.0 | 10.0 | 0.00 | 0.00 | 0.00 | 51 | 1010.3 |
| 20260506122515 | 60 | 114 | 2.0 | 10.0 | 0.00 | 0.00 | 0.00 | 50 | 1010.3 |
| 20260506122014 | 59 | 74 | 4.0 | 11.0 | 0.00 | 0.00 | 0.00 | 50 | 1010.3 |
| 20260506121521 | 59 | 127 | 3.0 | 13.0 | 0.00 | 0.00 | 0.00 | 50 | 1010.2 |
| 20260506121013 | 59 | 32 | 2.0 | 8.0 | 0.00 | 0.00 | 0.00 | 50 | 1010.3 |
| 20260506120514 | 59 | 269 | 3.0 | 12.0 | 0.00 | 0.00 | 0.00 | 51 | 1010.3 |
| 20260506120012 | 59 | 24 | 4.0 | 12.0 | 0.00 | 0.00 | 0.00 | 51 | 1010.2 |
| 20260506115512 | 59 | 19 | 3.0 | 11.0 | 0.00 | 0.00 | 0.00 | 52 | 1010.2 |
| 20260506115011 | 59 | 54 | 3.0 | 9.0 | 0.00 | 0.00 | 0.00 | 51 | 1010.3 |
| 20260506114511 | 59 | 311 | 3.0 | 12.0 | 0.00 | 0.00 | 0.00 | 50 | 1010.3 |
| 20260506114011 | 59 | 340 | 3.0 | 12.0 | 0.00 | 0.00 | 0.00 | 51 | 1010.3 |
| 20260506113510 | 58 | 82 | 3.0 | 15.0 | 0.00 | 0.00 | 0.00 | 50 | 1010.3 |
| 20260506113018 | 58 | 70 | 5.0 | 15.0 | 0.00 | 0.00 | 0.00 | 49 | 1010.3 |
| 20260506112510 | 58 | 44 | 4.0 | 13.0 | 0.00 | 0.00 | 0.00 | 52 | 1010.3 |
| 20260506112013 | 58 | 331 | 3.0 | 18.0 | 0.00 | 0.00 | 0.00 | 54 | 1010.2 |
| 20260506111509 | 58 | 51 | 4.0 | 18.0 | 0.00 | 0.00 | 0.00 | 56 | 1010.3 |
| 20260506111013 | 58 | 118 | 4.0 | 11.0 | 0.00 | 0.00 | 0.00 | 59 | 1010.2 |
| 20260506110509 | 58 | 25 | 3.0 | 11.0 | 0.00 | 0.00 | 0.00 | 59 | 1010.2 |
| 20260506110011 | 59 | 49 | 2.0 | 9.0 | 0.00 | 0.00 | 0.00 | 58 | 1010.1 |
| 20260506105506 | 58 | 331 | 2.0 | 9.0 | 0.00 | 0.00 | 0.00 | 55 | 1010.2 |
| 20260506105005 | 58 | 54 | 3.0 | 11.0 | 0.00 | 0.00 | 0.00 | 62 | 1010.3 |
| 20260506104505 | 58 | 100 | 2.0 | 11.0 | 0.00 | 0.00 | 0.00 | 61 | 1010.2 |
| 20260506104005 | 58 | 136 | 3.0 | 10.0 | 0.00 | 0.00 | 0.00 | 60 | 1010.4 |
| 20260506103504 | 57 | 46 | 2.0 | 10.0 | 0.00 | 0.00 | 0.00 | 60 | 1010.2 |
| 20260506103010 | 57 | 58 | 4.0 | 10.0 | 0.00 | 0.00 | 0.00 | 60 | 1010.2 |
| 20260506102502 | 57 | 16 | 2.0 | 10.0 | 0.00 | 0.00 | 0.00 | 61 | 1010.2 |
| 20260506102102 | 57 | 26 | 4.0 | 10.0 | 0.00 | 0.00 | 0.00 | 63 | 1010.2 |
| 20260506101600 | 57 | 355 | 4.0 | 10.0 | 0.00 | 0.00 | 0.00 | 65 | 1010.3 |
| 20260506101058 | 57 | 115 | 4.0 | 10.0 | 0.00 | 0.00 | 0.00 | 67 | 1010.2 |
| 20260506100558 | 57 | 72 | 2.0 | 9.0 | 0.00 | 0.00 | 0.00 | 68 | 1010.1 |
| 20260506100056 | 56 | 306 | 3.0 | 9.0 | 0.00 | 0.00 | 0.00 | 69 | 1010.1 |
| 20260506095555 | 57 | 124 | 2.0 | 11.0 | 0.00 | 0.00 | 0.00 | 69 | 1010.1 |
| 20260506095057 | 57 | 57 | 4.0 | 12.0 | 0.00 | 0.00 | 0.00 | 69 | 1010.1 |
| 20260506094558 | 57 | 127 | 5.0 | 12.0 | 0.00 | 0.00 | 0.00 | 69 | 1010.0 |
| 20260506094052 | 56 | 51 | 2.0 | 9.0 | 0.00 | 0.00 | 0.00 | 71 | 1010.0 |
| 20260506093552 | 56 | 55 | 2.0 | 6.0 | 0.00 | 0.00 | 0.00 | 71 | 1010.0 |
| 20260506093052 | 56 | 277 | 2.0 | 7.0 | 0.00 | 0.00 | 0.00 | 71 | 1010.0 |
| 20260506092551 | 56 | 32 | 2.0 | 10.0 | 0.00 | 0.00 | 0.00 | 68 | 1010.0 |
| 20260506092052 | 56 | 295 | 2.0 | 8.0 | 0.00 | 0.00 | 0.00 | 70 | 1010.0 |
| 20260506091552 | 56 | 36 | 1.0 | 9.0 | 0.00 | 0.00 | 0.00 | 72 | 1010.0 |
| 20260506091049 | 55 | 24 | 3.0 | 9.0 | 0.00 | 0.00 | 0.00 | 70 | 1009.9 |
| 20260506090549 | 56 | 32 | 3.0 | 7.0 | 0.00 | 0.00 | 0.00 | 70 | 1009.9 |
| 20260506090054 | 56 | 68 | 1.0 | 8.0 | 0.00 | 0.00 | 0.00 | 71 | 1009.9 |
| 20260506085549 | 56 | 335 | 2.0 | 10.0 | 0.00 | 0.00 | 0.00 | 72 | 1009.9 |
| 20260506085049 | 56 | 68 | 3.0 | 10.0 | 0.00 | 0.00 | 0.00 | 71 | 1009.9 |
| 20260506084601 | 56 | 45 | 2.0 | 8.0 | 0.00 | 0.00 | 0.00 | 72 | 1009.9 |
| 20260506084047 | 56 | 329 | 2.0 | 7.0 | 0.00 | 0.00 | 0.00 | 73 | 1009.8 |
| 20260506083546 | 56 | 310 | 2.0 | 9.0 | 0.00 | 0.00 | 0.00 | 73 | 1009.8 |
| 20260506083046 | 56 | 293 | 3.0 | 9.0 | 0.00 | 0.00 | 0.00 | 73 | 1009.8 |
| 20260506082544 | 56 | 27 | 3.0 | 9.0 | 0.00 | 0.00 | 0.00 | 73 | 1009.8 |
| 20260506082045 | 56 | 39 | 3.0 | 11.0 | 0.00 | 0.00 | 0.00 | 74 | 1009.7 |
| 20260506081544 | 56 | 44 | 4.0 | 11.0 | 0.00 | 0.00 | 0.00 | 74 | 1009.8 |
| 20260506081043 | 56 | 59 | 3.0 | 10.0 | 0.00 | 0.00 | 0.00 | 74 | 1009.8 |
| 20260506080545 | 56 | 69 | 1.0 | 11.0 | 0.00 | 0.00 | 0.00 | 75 | 1009.7 |
| 20260506073033 | 53 | 348 | 1.0 | 8.0 | 0.00 | 0.00 | 0.00 | 79 | 1009.7 |
| 20260506072534 | 53 | 294 | 2.0 | 10.0 | 0.00 | 0.00 | 0.00 | 79 | 1009.8 |
| 20260506072032 | 53 | 348 | 2.0 | 10.0 | 0.00 | 0.00 | 0.00 | 79 | 1009.7 |
| 20260506071532 | 53 | 47 | 4.0 | 10.0 | 0.00 | 0.00 | 0.00 | 79 | 1009.7 |
| 20260506071036 | 53 | 336 | 2.0 | 6.0 | 0.00 | 0.00 | 0.00 | 81 | 1009.6 |
| 20260506070530 | 53 | 327 | 2.0 | 6.0 | 0.00 | 0.00 | 0.00 | 81 | 1009.7 |
| 20260506062023 | 51 | 33 | 3.0 | 11.0 | 0.00 | 0.00 | 0.00 | 83 | 1009.4 |
| 20260506061542 | 51 | 306 | 3.0 | 8.0 | 0.00 | 0.00 | 0.00 | 83 | 1009.3 |
| 20260506061020 | 51 | 355 | 2.0 | 8.0 | 0.00 | 0.00 | 0.00 | 84 | 1009.3 |
| 20260506060523 | 51 | 306 | 2.0 | 8.0 | 0.00 | 0.00 | 0.00 | 84 | 1009.3 |
| 20260506051009 | 51 | 304 | 2.0 | 10.0 | 0.00 | 0.00 | 0.00 | 82 | 1009.3 |
| 20260506050515 | 51 | 292 | 3.0 | 8.0 | 0.00 | 0.00 | 0.00 | 82 | 1009.4 |
| 20260506045008 | 50 | 314 | 1.0 | 8.0 | 0.00 | 0.00 | 0.00 | 83 | 1009.4 |
| 20260506044507 | 50 | 350 | 2.0 | 8.0 | 0.00 | 0.00 | 0.00 | 83 | 1009.4 |
| 20260506044004 | 50 | 260 | 2.0 | 8.0 | 0.00 | 0.00 | 0.00 | 83 | 1009.4 |
| 20260506043503 | 50 | 294 | 3.0 | 8.0 | 0.00 | 0.00 | 0.00 | 83 | 1009.5 |
| 20260506043006 | 50 | 43 | 2.0 | 9.0 | 0.00 | 0.00 | 0.00 | 83 | 1009.4 |
| 20260506042505 | 50 | 321 | 2.0 | 6.0 | 0.00 | 0.00 | 0.00 | 83 | 1009.5 |
| 20260506042001 | 50 | 284 | 2.0 | 5.0 | 0.00 | 0.00 | 0.00 | 83 | 1009.5 |
| 20260506041604 | 50 | 302 | 1.0 | 5.0 | 0.00 | 0.00 | 0.00 | 83 | 1009.4 |
| 20260506041058 | 50 | 303 | 1.0 | 8.0 | 0.00 | 0.00 | 0.00 | 83 | 1009.5 |
| 20260506040559 | 50 | 39 | 3.0 | 8.0 | 0.00 | 0.00 | 0.00 | 83 | 1009.6 |
| 20260506040159 | 50 | 285 | 1.0 | 6.0 | 0.00 | 0.00 | 0.00 | 83 | 1009.6 |
| 20260506035559 | 50 | 88 | 3.0 | 8.0 | 0.00 | 0.00 | 0.00 | 83 | 1009.6 |
| 20260506035057 | 50 | 55 | 2.0 | 8.0 | 0.00 | 0.00 | 0.00 | 83 | 1009.6 |
| 20260506034604 | 50 | 297 | 2.0 | 9.0 | 0.00 | 0.00 | 0.00 | 83 | 1009.6 |
| 20260506034058 | 50 | 53 | 2.0 | 9.0 | 0.00 | 0.00 | 0.00 | 83 | 1009.6 |
| 20260506033556 | 50 | 30 | 1.0 | 5.0 | 0.00 | 0.00 | 0.00 | 83 | 1009.7 |
| 20260506033055 | 50 | 317 | 1.0 | 7.0 | 0.00 | 0.00 | 0.00 | 83 | 1009.6 |
| 20260506032555 | 50 | 343 | 1.0 | 8.0 | 0.00 | 0.00 | 0.00 | 83 | 1009.7 |
| 20260506032055 | 50 | 288 | 2.0 | 8.0 | 0.00 | 0.00 | 0.00 | 83 | 1009.6 |
| 20260506031554 | 50 | 5 | 1.0 | 5.0 | 0.00 | 0.00 | 0.00 | 83 | 1009.7 |
| 20260506031056 | 50 | 291 | 2.0 | 5.0 | 0.00 | 0.00 | 0.00 | 83 | 1009.7 |
| 20260506030552 | 50 | 287 | 2.0 | 6.0 | 0.00 | 0.00 | 0.00 | 83 | 1009.8 |
| 20260506030056 | 50 | 317 | 3.0 | 6.0 | 0.00 | 0.00 | 0.00 | 83 | 1009.9 |
| 20260506025551 | 50 | 252 | 2.0 | 5.0 | 0.00 | 0.00 | 0.00 | 83 | 1009.9 |
| 20260506025050 | 50 | 303 | 1.0 | 4.0 | 0.00 | 0.00 | 0.00 | 84 | 1009.9 |
| 20260506024556 | 50 | 344 | 1.0 | 4.0 | 0.00 | 0.00 | 0.00 | 84 | 1009.9 |
| 20260506024047 | 50 | 351 | 1.0 | 6.0 | 0.00 | 0.00 | 0.00 | 84 | 1009.9 |
| 20260506023546 | 50 | 341 | 1.0 | 6.0 | 0.00 | 0.00 | 0.00 | 84 | 1009.9 |
| 20260506023045 | 50 | 287 | 1.0 | 6.0 | 0.00 | 0.00 | 0.00 | 84 | 1009.9 |
| 20260506022544 | 50 | 355 | 1.0 | 6.0 | 0.00 | 0.00 | 0.00 | 84 | 1009.9 |
| 20260506022043 | 50 | 299 | 2.0 | 9.0 | 0.00 | 0.00 | 0.00 | 84 | 1009.9 |
| 20260506021557 | 50 | 269 | 2.0 | 9.0 | 0.00 | 0.00 | 0.00 | 84 | 1009.9 |
| 20260506021041 | 50 | 15 | 1.0 | 7.0 | 0.00 | 0.00 | 0.00 | 83 | 1009.9 |
| 20260506020541 | 50 | 355 | 3.0 | 7.0 | 0.00 | 0.00 | 0.00 | 83 | 1009.9 |
| 20260506020040 | 50 | 52 | 2.0 | 6.0 | 0.00 | 0.00 | 0.00 | 83 | 1009.9 |
| 20260506015539 | 50 | 23 | 2.0 | 6.0 | 0.00 | 0.00 | 0.00 | 83 | 1010.0 |
| 20260506015039 | 50 | 283 | 2.0 | 10.0 | 0.00 | 0.00 | 0.00 | 83 | 1010.1 |
| 20260506014539 | 50 | 46 | 3.0 | 10.0 | 0.00 | 0.00 | 0.00 | 83 | 1010.0 |
| 20260506014040 | 50 | 277 | 2.0 | 9.0 | 0.00 | 0.00 | 0.00 | 83 | 1010.0 |
| 20260506013537 | 50 | 255 | 1.0 | 5.0 | 0.00 | 0.00 | 0.00 | 83 | 1010.1 |
| 20260506013040 | 50 | 71 | 2.0 | 5.0 | 0.00 | 0.00 | 0.00 | 83 | 1010.1 |
| 20260506012638 | 50 | 288 | 2.0 | 5.0 | 0.00 | 0.00 | 0.00 | 83 | 1010.1 |
| 20260506012039 | 50 | 312 | 1.0 | 8.0 | 0.00 | 0.00 | 0.00 | 83 | 1010.1 |
| 20260506011538 | 50 | 290 | 1.0 | 8.0 | 0.00 | 0.00 | 0.00 | 83 | 1010.1 |
| 20260506011037 | 49 | 63 | 2.0 | 5.0 | 0.00 | 0.00 | 0.00 | 84 | 1010.1 |
| 20260506010537 | 49 | 310 | 0.0 | 7.0 | 0.00 | 0.00 | 0.00 | 84 | 1010.2 |
| 20260506010035 | 49 | 292 | 1.0 | 4.0 | 0.00 | 0.00 | 0.00 | 83 | 1010.2 |
| 20260506005534 | 49 | 64 | 1.0 | 4.0 | 0.00 | 0.00 | 0.00 | 83 | 1010.3 |
| 20260506005034 | 49 | 325 | 1.0 | 4.0 | 0.00 | 0.00 | 0.00 | 83 | 1010.3 |
| 20260506004535 | 49 | 34 | 1.0 | 4.0 | 0.00 | 0.00 | 0.00 | 83 | 1010.4 |
| 20260506004034 | 49 | 282 | 2.0 | 9.0 | 0.00 | 0.00 | 0.00 | 83 | 1010.5 |
| 20260506003532 | 49 | 292 | 1.0 | 8.0 | 0.00 | 0.00 | 0.00 | 83 | 1010.5 |
| 20260506003032 | 49 | 30 | 1.0 | 5.0 | 0.00 | 0.00 | 0.00 | 83 | 1010.6 |
| 20260506002531 | 49 | 302 | 1.0 | 5.0 | 0.00 | 0.00 | 0.00 | 82 | 1010.5 |
| 20260506002030 | 50 | 295 | 2.0 | 6.0 | 0.00 | 0.00 | 0.00 | 82 | 1010.6 |
| 20260506001533 | 50 | 331 | 2.0 | 6.0 | 0.00 | 0.00 | 0.00 | 83 | 1010.6 |
| 20260506001030 | 50 | 300 | 1.0 | 5.0 | 0.00 | 0.00 | 0.00 | 83 | 1010.7 |
| 20260506000530 | 50 | 309 | 2.0 | 5.0 | 0.00 | 0.00 | 0.00 | 83 | 1010.7 |
| 20260506000038 | 50 | 310 | 2.0 | 5.0 | 0.00 | 0.00 | 0.00 | 83 | 1010.7 |
| 20260505235533 | 50 | 327 | 2.0 | 7.0 | 0.00 | 0.00 | 0.00 | 83 | 1010.7 |
| 20260505235030 | 50 | 82 | 3.0 | 7.0 | 0.00 | 0.00 | 0.00 | 83 | 1010.7 |